[[{"header":{"parameterUnit":"m.s-1","parameterCategory":1,"la1":30.2991,"la2":30.254,"lo1":-89.0895,"lo2":-89.0444,"dy":0.0017,"dx":0.0017,"nx":28,"ny":28,"refTime":"2025-03-14T03:00:00:Z","depth":0,"parameterNumber":2,"parameterNumberName":"U-component_of_WINDS"},"data":[0,0,0,0,0,0,0,0,0,0,0,0,0,0,0,0,0,0,0,0,0,0,0,0,0,0,0,0,0,0,0,0,0,0,0,0,0,0,0,0,0,0,0,0,0,0,0,0,0,0,0,0,0,0,0,0,0,0,-3.9589,-3.9588,0,-3.9561,-3.956,-3.956,-3.948,-3.9478,-3.9476,-3.9475,-3.9448,-3.9449,-3.945,0,0,0,0,0,0,0,0,0,0,0,0,0,-3.9576,-3.9576,-3.9589,-3.9588,-3.9588,-3.9561,-3.956,-3.956,-3.948,-3.9478,-3.9476,-3.9474,-3.9448,-3.9449,-3.945,0,0,0,0,0,0,0,0,0,0,0,0,0,-3.9568,-3.9577,-3.9589,-3.9545,-3.9541,-3.9561,-3.956,-3.956,-3.9481,-3.9478,-3.9475,-3.9473,-3.9448,-3.9449,-3.9451,-3.9512,0,0,-3.9455,-3.9455,0,0,0,0,0,0,0,0,-3.9569,-3.9569,-3.9552,-3.9548,-3.9543,-3.9521,-3.9546,-3.9544,-3.9481,-3.9504,-3.9475,-3.9472,-3.9475,-3.9474,-3.9474,-3.9511,-3.9509,-3.9455,-3.9456,-3.9456,-3.9457,0,0,0,0,0,0,0,-3.9569,-3.9569,-3.9578,-3.9551,-3.9546,-3.9528,-3.9523,-3.9545,-3.9504,-3.9501,-3.9495,-3.9493,-3.9472,-3.9473,-3.9473,-3.9509,-3.9455,-3.9456,-3.9457,-3.9458,-3.9595,-3.9598,0,0,0,0,0,0,-3.9576,-3.957,-3.9579,-3.9577,-3.955,-3.953,-3.9525,-3.9531,-3.9504,-3.9497,-3.9495,-3.9489,-3.9472,-3.9472,-3.9472,-3.9542,-3.9456,-3.9458,-3.9458,-3.9592,-3.9595,-3.9599,0,0,0,0,0,0,-3.9576,-3.9577,-3.958,-3.9572,-3.9571,-3.9533,-3.954,-3.9532,-3.9533,-3.9499,-3.9492,-3.9504,-3.947,-3.947,-3.9502,-3.954,-3.9458,-3.946,-3.9589,-3.9593,-3.9597,-3.9682,0,0,0,0,0,0,-3.9576,-3.9578,-3.96,-3.9573,-3.9572,-3.961,-3.9542,-3.9533,-3.9535,-3.9527,-3.9505,-3.9499,-3.9468,-3.9501,-3.9504,-3.954,-3.9461,-3.9585,-3.9591,-3.9596,-3.9676,-3.9688,-3.97,0,0,0,0,0,-3.9576,-3.9625,-3.9601,-3.9603,-3.9598,-3.9612,-3.9611,-3.9574,-3.9538,-3.9561,-3.954,-3.95,-3.9536,-3.9505,-3.9508,-3.9545,-3.9583,-3.9589,-3.9595,-3.967,-3.9686,-3.9699,0,0,0,0,0,0,-3.9657,-3.9621,-3.9594,-3.9636,-3.9628,-3.9598,-3.9625,-3.9592,-3.9593,-3.9586,-3.954,-3.9536,-3.9575,-3.9563,-3.953,-3.9603,-3.9553,-3.956,-3.9609,-3.9623,-3.9635,-3.9636,-3.9462,0,0,0,0,0,-3.968,-3.9694,-3.9662,-3.9702,-3.9699,-3.9664,-3.9668,-3.964,-3.963,-3.9626,-3.9607,-3.9599,-3.9609,-3.9616,-3.9623,-3.9674,-3.9669,-3.9702,-3.9714,-3.9724,-3.973,-3.9756,-3.9771,-3.9619,-3.9619,-3.9619,0,0,-3.9728,-3.971,-3.9721,-3.9718,-3.9708,-3.9724,-3.9661,-3.968,-3.9691,-3.9629,-3.9658,-3.9644,-3.9633,-3.9675,-3.9693,-3.9667,-3.9771,-3.9732,-3.974,-3.9741,-3.9764,-3.9779,-3.9792,-3.9624,-3.9623,-3.9622,0,0,-3.9822,-3.981,-3.9842,-3.9834,-3.982,-3.9796,-3.9804,-3.978,-3.9768,-3.9797,-3.975,-3.9764,-3.9781,-3.9775,-3.9774,-3.9869,-3.9832,-3.9872,-3.9934,-3.9961,-3.9973,-3.9983,-4.0016,-4.0028,-3.9879,-3.9879,-3.9879,0,-3.9883,-3.9903,-3.9863,-3.9885,-3.9886,-3.983,-3.9863,-3.9857,-3.9847,-3.9849,-3.982,-3.984,-3.9829,-3.9869,-3.9892,-3.9894,-3.9902,-3.9873,-3.9974,-3.9984,-3.9993,-4.0024,-4.0037,-3.9884,-3.9884,-3.9883,-3.9883,0,-3.9979,-3.9994,-4.0022,-4.0013,-4.0017,-4.0044,-4.0009,-4.0018,-3.9991,-3.997,-4.0001,-3.9985,-3.9988,-3.9996,-3.9969,-4.0033,-4.0017,-3.9982,-3.993,-4.0013,-4.0041,-4.0053,-3.9891,-3.9889,-3.9888,-3.9887,0,0,-4.0121,-4.009,-4.0101,-4.0096,-4.0078,-4.0089,-4.0116,-4.0118,-4.0126,-4.0122,-4.0142,-4.0159,-4.0127,-4.0126,-4.0099,-4.0123,-4.0198,-4.0084,-4.0083,-4.0105,-4.0266,-4.0292,-4.0306,-4.0174,-4.0177,-4.0178,-4.0267,0,-4.0209,-4.025,-4.0215,-4.0263,-4.0277,-4.0226,-4.0249,-4.0241,-4.0223,-4.0233,-4.0214,-4.0226,-4.0183,-4.0182,-4.0204,-4.0184,-4.0229,-4.0177,-4.0193,-4.0194,-4.0196,-4.0321,-4.0347,-4.0431,-4.0278,-4.028,-4.0281,0,-4.0316,-4.0316,-4.0366,-4.0345,-4.0349,-4.037,-4.037,-4.038,-4.0371,-4.0356,-4.0356,-4.0323,-4.0348,-4.0299,-4.0333,-4.0299,-4.0303,-4.0295,-4.0298,-4.0296,-4.0241,-4.0321,-4.0457,-4.047,-4.0298,-4.0297,-4.0295,0,-4.0414,-4.0427,-4.0457,-4.0455,-4.0432,-4.0448,-4.0439,-4.0427,-4.0431,-4.0431,-4.0434,-4.0438,-4.044,-4.0444,-4.0413,-4.038,-4.0451,-4.0399,-4.044,-4.0441,-4.0455,-4.0454,-4.0592,-4.0462,-4.0461,-4.0461,-4.0461,0,-4.0515,-4.0547,-4.0501,-4.052,-4.0555,-4.0516,-4.0551,-4.0537,-4.0527,-4.0543,-4.0501,-4.0517,-4.0475,-4.0488,-4.0464,-4.0496,-4.0498,-4.0487,-4.048,-4.049,-4.0491,-4.0491,-4.0483,-4.0464,-4.0464,-4.0463,-4.0462,0,-4.0629,-4.06,-4.063,-4.0606,-4.0601,-4.0627,-4.0607,-4.0624,-4.0604,-4.0625,-4.0628,-4.0597,-4.061,-4.058,-4.0588,-4.0572,-4.0617,-4.0602,-4.062,-4.0615,-4.0657,-4.0653,-4.0798,-4.0815,-4.0675,-4.0676,-4.0677,0,-4.0694,-4.0717,-4.0696,-4.0703,-4.0697,-4.0709,-4.0713,-4.0677,-4.0683,-4.0674,-4.0693,-4.0701,-4.0706,-4.0729,-4.0708,-4.0714,-4.0697,-4.0748,-4.0698,-4.0707,-4.0697,-4.0695,-4.0697,-4.0758,-4.076,-4.0761,-4.0762,0,-4.0813,-4.0798,-4.0804,-4.0807,-4.0813,-4.0813,-4.081,-4.0819,-4.078,-4.0789,-4.0801,-4.0805,-4.0813,-4.0823,-4.0825,-4.0816,-4.0783,-4.0778,-4.0788,-4.0797,-4.0806,-4.0801,-4.0647,-4.0775,-4.0773,-4.0772,-4.0772,-4.0771,-4.0904,-4.0922,-4.091,-4.0919,-4.0914,-4.0912,-4.0927,-4.091,-4.0919,-4.0922,-4.0901,-4.0917,-4.0908,-4.0907,-4.0903,-4.0916,-4.0893,-4.0907,-4.091,-4.0914,-4.092,-4.0806,-4.0916,-4.0916,-4.0916,-4.0915,-4.0915,0,-4.1019,-4.1009,-4.1018,-4.1016,-4.1024,-4.0992,-4.0988,-4.0996,-4.1011,-4.1006,-4.1011,-4.1026,-4.1035,-4.1015,-4.1022,-4.1036,-4.1021,-4.1039,-4.1037,-4.1035,-4.0941,-4.0931,-4.1051,-4.1051,-4.1051,-4.1051,-4.1051,-4.1051,-4.108,-4.1109,-4.1093,-4.112,-4.111,-4.1125,-4.1125,-4.1124,-4.112,-4.1137,-4.1144,-4.1132,-4.1121,-4.1126,-4.1134,-4.1128,-4.1132,-4.1155,-4.1143,-4.1055,-4.1042,-4.1029,-4.102,-4.1156,-4.1156,-4.1236,-4.1237,-4.1238]},{"header":{"parameterUnit":"m.s-1","parameterCategory":1,"la1":30.2991,"la2":30.254,"lo1":-89.0895,"lo2":-89.0444,"dy":0.0017,"dx":0.0017,"nx":28,"ny":28,"refTime":"2025-03-14T03:00:00:Z","depth":0,"parameterNumber":3,"parameterNumberName":"V-component_of_WINDS"},"data":[0,0,0,0,0,0,0,0,0,0,0,0,0,0,0,0,0,0,0,0,0,0,0,0,0,0,0,0,0,0,0,0,0,0,0,0,0,0,0,0,0,0,0,0,0,0,0,0,0,0,0,0,0,0,0,0,0,0,3.521,3.521,0,3.5209,3.5208,3.5208,3.5196,3.5195,3.5195,3.5195,3.5189,3.519,3.519,0,0,0,0,0,0,0,0,0,0,0,0,0,3.52,3.52,3.521,3.521,3.521,3.5209,3.5208,3.5208,3.5196,3.5195,3.5195,3.5195,3.5189,3.519,3.519,0,0,0,0,0,0,0,0,0,0,0,0,0,3.5202,3.52,3.521,3.5203,3.5203,3.5209,3.5208,3.5208,3.5196,3.5195,3.5195,3.5194,3.5189,3.519,3.519,3.52,0,0,3.519,3.5191,0,0,0,0,0,0,0,0,3.5202,3.5202,3.5204,3.5204,3.5203,3.5202,3.5203,3.5206,3.5196,3.5198,3.5195,3.5194,3.5194,3.5194,3.5194,3.52,3.52,3.519,3.5191,3.5191,3.5191,0,0,0,0,0,0,0,3.5201,3.5202,3.5209,3.5204,3.5204,3.52,3.52,3.5203,3.5198,3.5198,3.5197,3.5197,3.5193,3.5194,3.5194,3.52,3.519,3.5191,3.5191,3.5191,3.5218,3.5219,0,0,0,0,0,0,3.5203,3.5202,3.5209,3.5209,3.5201,3.5201,3.52,3.5203,3.5198,3.5197,3.5198,3.5197,3.5194,3.5194,3.5194,3.5208,3.5191,3.5191,3.5191,3.5218,3.5218,3.5219,0,0,0,0,0,0,3.5202,3.5203,3.5209,3.5205,3.5206,3.5201,3.5204,3.5203,3.5204,3.5198,3.5197,3.52,3.5193,3.5193,3.52,3.5208,3.5191,3.5191,3.5217,3.5218,3.5219,3.5236,0,0,0,0,0,0,3.5202,3.5203,3.5207,3.5206,3.5206,3.5216,3.5204,3.5203,3.5205,3.5203,3.52,3.5199,3.5193,3.52,3.52,3.5208,3.5191,3.5216,3.5217,3.5219,3.5235,3.5238,3.524,0,0,0,0,0,3.5202,3.521,3.5208,3.5208,3.5211,3.5216,3.5216,3.5211,3.5205,3.5209,3.5207,3.5199,3.5207,3.5201,3.5201,3.5209,3.5216,3.5217,3.5218,3.5234,3.5237,3.524,0,0,0,0,0,0,3.521,3.521,3.5207,3.5215,3.5216,3.5214,3.5219,3.5214,3.5216,3.5214,3.5207,3.5206,3.5214,3.5212,3.5205,3.5221,3.521,3.5212,3.5222,3.5225,3.5228,3.5228,3.5192,0,0,0,0,0,3.5214,3.5219,3.5218,3.5225,3.5226,3.5223,3.5225,3.5221,3.5221,3.5221,3.5218,3.5218,3.5221,3.5223,3.5225,3.5235,3.5235,3.5241,3.5243,3.5246,3.5247,3.5255,3.5259,3.5224,3.5224,3.5224,0,0,3.522,3.522,3.5223,3.5227,3.5227,3.5233,3.5223,3.5228,3.5232,3.5221,3.5228,3.5227,3.5226,3.5236,3.5239,3.5234,3.5257,3.5247,3.5249,3.5249,3.5257,3.526,3.5263,3.5224,3.5224,3.5224,0,0,3.5234,3.5234,3.5242,3.5244,3.5246,3.5244,3.5246,3.5246,3.5245,3.5253,3.5246,3.5251,3.5255,3.5256,3.5257,3.5276,3.527,3.5277,3.529,3.5298,3.5301,3.5304,3.5313,3.5316,3.5278,3.5278,3.5278,0,3.5241,3.525,3.5246,3.5254,3.5257,3.525,3.5259,3.526,3.5261,3.5264,3.5258,3.5266,3.5265,3.5276,3.5282,3.5282,3.5285,3.5277,3.5301,3.5304,3.5306,3.5315,3.5318,3.5279,3.5279,3.5279,3.5279,0,3.5259,3.5266,3.5272,3.5277,3.5281,3.5288,3.5287,3.5291,3.5288,3.5287,3.5296,3.5295,3.5299,3.5301,3.5297,3.5313,3.531,3.5303,3.5292,3.531,3.5319,3.5322,3.5281,3.5281,3.528,3.528,0,0,3.5275,3.5283,3.5285,3.5289,3.5293,3.5297,3.5306,3.5312,3.5316,3.5319,3.5326,3.5333,3.5328,3.5329,3.5325,3.5332,3.5351,3.5325,3.5325,3.5332,3.5372,3.5378,3.5382,3.5348,3.5348,3.5348,3.5373,0,3.5291,3.5307,3.5307,3.5322,3.5329,3.5325,3.5333,3.5336,3.5336,3.5343,3.5342,3.5348,3.534,3.5341,3.5348,3.5348,3.536,3.5346,3.5355,3.5356,3.5357,3.5386,3.5391,3.5414,3.5375,3.5376,3.5376,0,3.531,3.5317,3.5333,3.534,3.5343,3.535,3.5358,3.5363,3.5368,3.5368,3.5372,3.5368,3.5378,3.5368,3.5381,3.5372,3.5376,3.5377,3.5378,3.5379,3.5367,3.5389,3.542,3.5424,3.5381,3.538,3.538,0,3.5323,3.5336,3.5349,3.5352,3.5359,3.5365,3.5368,3.5372,3.5377,3.5383,3.5387,3.5393,3.5397,3.5402,3.5401,3.5393,3.5416,3.5405,3.5417,3.5417,3.5422,3.5421,3.5456,3.5423,3.5422,3.5422,3.5422,0,3.534,3.5351,3.5355,3.5363,3.5376,3.5376,3.5388,3.5391,3.5396,3.5404,3.54,3.5408,3.5406,3.5414,3.5412,3.5426,3.5427,3.5428,3.5427,3.5429,3.5429,3.5431,3.543,3.5423,3.5423,3.5423,3.5423,0,3.5356,3.5359,3.5373,3.5381,3.5383,3.5393,3.5399,3.5407,3.5409,3.542,3.5423,3.5425,3.5435,3.5434,3.5444,3.5444,3.5461,3.5458,3.546,3.546,3.5473,3.5472,3.5511,3.5517,3.5479,3.5479,3.5479,0,3.5367,3.5376,3.5386,3.5393,3.5398,3.5408,3.5414,3.5415,3.5422,3.5431,3.5438,3.5448,3.5456,3.5472,3.5474,3.5483,3.5481,3.5494,3.5482,3.5485,3.5484,3.5484,3.5486,3.5497,3.5497,3.5497,3.5498,0,3.5387,3.539,3.5399,3.5411,3.542,3.5429,3.5436,3.5442,3.5445,3.5452,3.5464,3.5471,3.5484,3.5495,3.5504,3.5507,3.5503,3.5502,3.5506,3.5507,3.5509,3.551,3.5468,3.5501,3.55,3.55,3.55,3.55,3.5402,3.5411,3.5421,3.5433,3.5441,3.545,3.5459,3.5464,3.5474,3.5486,3.5486,3.55,3.5508,3.552,3.5525,3.5535,3.5531,3.5535,3.5537,3.5538,3.5541,3.5507,3.5537,3.5537,3.5537,3.5536,3.5536,0,3.5423,3.5431,3.5442,3.5456,3.5466,3.5465,3.5475,3.5484,3.5496,3.5505,3.5515,3.553,3.5542,3.5546,3.5558,3.5566,3.5565,3.5569,3.5569,3.557,3.5543,3.554,3.557,3.557,3.557,3.557,3.557,3.557,3.5435,3.5452,3.5457,3.5478,3.5485,3.55,3.5507,3.5516,3.5523,3.5541,3.5552,3.5556,3.5564,3.5577,3.5588,3.5589,3.5594,3.56,3.56,3.5575,3.5571,3.5568,3.5565,3.56,3.5601,3.5627,3.5627,3.5627]}]]